TimeCDT,TemperatureF,Dew PointF,Humidity,Sea Level PressureIn,VisibilityMPH,Wind Direction,Wind SpeedMPH,Gust SpeedMPH,PrecipitationIn,Events,Conditions,WindDirDegrees,DateUTC
12:53 AM,36.0,19.9,52,30.38,10.0,Calm,Calm,-,N/A,,Clear,0,2013-03-14 05:53:00
1:53 AM,35.1,19.9,54,30.37,10.0,SE,3.5,-,N/A,,Clear,140,2013-03-14 06:53:00
2:53 AM,32.0,23.0,69,30.35,10.0,Calm,Calm,-,N/A,,Clear,0,2013-03-14 07:53:00
3:53 AM,32.0,23.0,69,30.35,10.0,ESE,4.6,-,N/A,,Clear,120,2013-03-14 08:53:00
4:53 AM,30.0,23.0,75,30.32,10.0,ESE,4.6,-,N/A,,Clear,120,2013-03-14 09:53:00
5:53 AM,30.9,21.9,69,30.33,10.0,ESE,4.6,-,N/A,,Clear,120,2013-03-14 10:53:00
6:53 AM,30.9,21.9,69,30.33,10.0,SE,6.9,-,N/A,,Clear,140,2013-03-14 11:53:00
7:53 AM,32.0,21.9,66,30.32,10.0,ESE,6.9,-,N/A,,Clear,120,2013-03-14 12:53:00
8:53 AM,37.9,24.1,57,30.31,10.0,SE,8.1,-,N/A,,Clear,130,2013-03-14 13:53:00
9:53 AM,51.1,27.0,39,30.28,10.0,SSE,11.5,-,N/A,,Clear,160,2013-03-14 14:53:00
10:53 AM,59.0,28.0,31,30.26,10.0,SSE,6.9,-,N/A,,Clear,150,2013-03-14 15:53:00
11:53 AM,64.4,28.4,26,30.23,10.0,SW,10.4,18.4,N/A,,Clear,220,2013-03-14 16:53:00
12:53 PM,66.9,30.0,25,30.21,10.0,WSW,13.8,19.6,N/A,,Clear,240,2013-03-14 17:53:00
1:53 PM,68.0,30.9,25,30.19,10.0,WSW,18.4,23.0,N/A,,Clear,240,2013-03-14 18:53:00
2:53 PM,69.1,32.0,25,30.16,10.0,West,16.1,23.0,N/A,,Clear,280,2013-03-14 19:53:00
3:53 PM,70.0,33.1,26,30.14,10.0,WSW,16.1,24.2,N/A,,Clear,250,2013-03-14 20:53:00
4:53 PM,68.0,33.1,27,30.14,10.0,WSW,15.0,24.2,N/A,,Clear,250,2013-03-14 21:53:00
5:53 PM,69.1,34.0,27,30.13,10.0,WSW,12.7,21.9,N/A,,Clear,250,2013-03-14 22:53:00
6:53 PM,66.9,35.1,31,30.12,10.0,SW,9.2,-,N/A,,Clear,230,2013-03-14 23:53:00
7:53 PM,63.0,35.1,35,30.13,10.0,Calm,Calm,-,N/A,,Clear,0,2013-03-15 00:53:00
8:53 PM,61.0,37.0,41,30.12,10.0,West,4.6,-,N/A,,Clear,260,2013-03-15 01:53:00
9:53 PM,60.1,37.9,44,30.13,10.0,WNW,3.5,-,N/A,,Clear,290,2013-03-15 02:53:00
10:53 PM,57.9,37.9,47,30.12,10.0,Calm,Calm,-,N/A,,Clear,0,2013-03-15 03:53:00
11:53 PM,60.1,39.0,46,30.11,10.0,West,4.6,-,N/A,,Clear,260,2013-03-15 04:53:00